| time (UTC) | temp C | wind direction | speed KPH | gust KPH | rain 1hr cm | rain 24hr cm | rain mn cm | humidity % | barometer mb |
| 20260906124608 | 16 | 59 | 6.4 | 11.3 | 0.00 | 0.00 | 0.00 | 87 | 1020.1 |
| 20260906124044 | 16 | 74 | 6.4 | 11.3 | 0.00 | 0.00 | 0.00 | 88 | 1020.1 |
| 20260906123542 | 15 | 65 | 6.4 | 11.3 | 0.00 | 0.00 | 0.00 | 88 | 1020.0 |
| 20260906123058 | 15 | 90 | 4.8 | 8.0 | 0.00 | 0.00 | 0.00 | 90 | 1020.1 |
| 20260906122544 | 15 | 51 | 4.8 | 8.0 | 0.00 | 0.00 | 0.00 | 91 | 1020.0 |
| 20260906122044 | 15 | 51 | 4.8 | 8.0 | 0.00 | 0.00 | 0.00 | 91 | 1019.9 |
| 20260906121602 | 15 | 53 | 4.8 | 6.4 | 0.00 | 0.00 | 0.00 | 92 | 1019.8 |
| 20260906121046 | 14 | 49 | 3.2 | 4.8 | 0.00 | 0.00 | 0.00 | 92 | 1019.8 |
| 20260906120544 | 14 | 49 | 1.6 | 3.2 | 0.00 | 0.00 | 0.00 | 92 | 1019.9 |
| 20260906120100 | 13 | 49 | 1.6 | 3.2 | 0.00 | 0.00 | 0.00 | 93 | 1019.8 |
| 20260906115546 | 13 | 49 | 1.6 | 4.8 | 0.00 | 0.00 | 0.00 | 93 | 1019.7 |
| 20260906115043 | 13 | 49 | 1.6 | 4.8 | 0.00 | 0.00 | 0.00 | 93 | 1019.7 |
| 20260906114620 | 13 | 55 | 3.2 | 4.8 | 0.00 | 0.00 | 0.00 | 94 | 1019.6 |
| 20260906114043 | 13 | 61 | 3.2 | 4.8 | 0.00 | 0.00 | 0.00 | 93 | 1019.6 |
| 20260906113543 | 13 | 58 | 1.6 | 3.2 | 0.00 | 0.00 | 0.00 | 93 | 1019.4 |
| 20260906113100 | 13 | 70 | 1.6 | 3.2 | 0.00 | 0.00 | 0.00 | 93 | 1019.3 |
| 20260906112543 | 13 | 70 | 0.0 | 3.2 | 0.00 | 0.00 | 0.00 | 93 | 1019.3 |
| 20260906112044 | 13 | 70 | 0.0 | 3.2 | 0.00 | 0.00 | 0.00 | 93 | 1019.3 |
| 20260906111620 | 13 | 70 | 0.0 | 4.8 | 0.00 | 0.00 | 0.00 | 93 | 1019.3 |
| 20260906111046 | 13 | 70 | 3.2 | 6.4 | 0.00 | 0.00 | 0.00 | 93 | 1019.2 |
| 20260906110544 | 13 | 57 | 3.2 | 6.4 | 0.00 | 0.00 | 0.00 | 93 | 1019.1 |
| 20260906110106 | 13 | 65 | 4.8 | 6.4 | 0.00 | 0.00 | 0.00 | 93 | 1019.1 |
| 20260906105543 | 13 | 67 | 4.8 | 6.4 | 0.00 | 0.00 | 0.00 | 93 | 1019.2 |
| 20260906105044 | 13 | 61 | 3.2 | 4.8 | 0.00 | 0.00 | 0.00 | 93 | 1019.1 |
| 20260906104606 | 13 | 58 | 3.2 | 4.8 | 0.00 | 0.00 | 0.00 | 93 | 1019.1 |
| 20260906104043 | 13 | 32 | 3.2 | 3.2 | 0.00 | 0.00 | 0.00 | 93 | 1019.0 |
| 20260906103543 | 13 | 32 | 1.6 | 3.2 | 0.00 | 0.00 | 0.00 | 92 | 1019.0 |
| 20260906103057 | 13 | 32 | 3.2 | 3.2 | 0.00 | 0.00 | 0.00 | 92 | 1019.2 |
| 20260906102547 | 13 | 32 | 1.6 | 3.2 | 0.00 | 0.00 | 0.00 | 92 | 1019.2 |
| 20260906102047 | 13 | 32 | 1.6 | 3.2 | 0.00 | 0.00 | 0.00 | 92 | 1019.2 |
| 20260906101605 | 13 | 32 | 1.6 | 3.2 | 0.00 | 0.00 | 0.00 | 91 | 1019.2 |
| 20260906101049 | 13 | 61 | 1.6 | 3.2 | 0.00 | 0.00 | 0.00 | 92 | 1019.2 |
| 20260906100547 | 13 | 61 | 1.6 | 6.4 | 0.00 | 0.00 | 0.00 | 91 | 1019.1 |
| 20260906100105 | 14 | 61 | 3.2 | 6.4 | 0.00 | 0.00 | 0.00 | 91 | 1019.1 |
| 20260906095550 | 14 | 77 | 4.8 | 6.4 | 0.00 | 0.00 | 0.00 | 92 | 1019.1 |
| 20260906095044 | 14 | 80 | 4.8 | 8.0 | 0.00 | 0.00 | 0.00 | 92 | 1019.0 |
| 20260906094558 | 14 | 74 | 6.4 | 8.0 | 0.00 | 0.00 | 0.00 | 92 | 1018.9 |
| 20260906094049 | 13 | 83 | 3.2 | 4.8 | 0.00 | 0.00 | 0.00 | 92 | 1018.9 |
| 20260906093548 | 14 | 61 | 3.2 | 4.8 | 0.00 | 0.00 | 0.00 | 92 | 1019.1 |
| 20260906093103 | 13 | 61 | 3.2 | 6.4 | 0.00 | 0.00 | 0.00 | 91 | 1019.0 |
| 20260906092548 | 13 | 44 | 4.8 | 6.4 | 0.00 | 0.00 | 0.00 | 91 | 1018.9 |
| 20260906092048 | 14 | 55 | 3.2 | 3.2 | 0.00 | 0.00 | 0.00 | 90 | 1019.1 |
| 20260906091607 | 14 | 33 | 3.2 | 3.2 | 0.00 | 0.00 | 0.00 | 90 | 1019.0 |
| 20260906091049 | 15 | 113 | 1.6 | 3.2 | 0.00 | 0.00 | 0.00 | 89 | 1019.0 |
| 20260906090547 | 15 | 113 | 1.6 | 3.2 | 0.00 | 0.00 | 0.00 | 88 | 1019.1 |
| 20260906090115 | 15 | 113 | 0.0 | 3.2 | 0.00 | 0.00 | 0.00 | 87 | 1019.1 |
| 20260906085544 | 15 | 113 | 1.6 | 4.8 | 0.00 | 0.00 | 0.00 | 88 | 1018.9 |
| 20260906085046 | 15 | 113 | 1.6 | 4.8 | 0.00 | 0.00 | 0.00 | 88 | 1018.8 |
| 20260906084606 | 15 | 113 | 3.2 | 9.7 | 0.00 | 0.00 | 0.00 | 88 | 1018.8 |
| 20260906084046 | 15 | 113 | 3.2 | 9.7 | 0.00 | 0.00 | 0.00 | 88 | 1018.7 |
| 20260906083544 | 15 | 103 | 3.2 | 6.4 | 0.00 | 0.00 | 0.00 | 88 | 1018.5 |
| 20260906083057 | 15 | 107 | 4.8 | 9.7 | 0.00 | 0.00 | 0.00 | 87 | 1018.4 |
| 20260906082546 | 15 | 94 | 4.8 | 9.7 | 0.00 | 0.00 | 0.00 | 87 | 1018.5 |
| 20260906082050 | 15 | 123 | 4.8 | 6.4 | 0.00 | 0.00 | 0.00 | 87 | 1018.4 |
| 20260906081556 | 15 | 107 | 4.8 | 9.7 | 0.00 | 0.00 | 0.00 | 87 | 1018.4 |
| 20260906081050 | 15 | 106 | 4.8 | 9.7 | 0.00 | 0.00 | 0.00 | 87 | 1018.5 |
| 20260906080547 | 15 | 96 | 4.8 | 9.7 | 0.00 | 0.00 | 0.00 | 87 | 1018.4 |
| 20260906080055 | 15 | 98 | 4.8 | 6.4 | 0.00 | 0.00 | 0.00 | 87 | 1018.3 |
| 20260906075546 | 15 | 119 | 4.8 | 6.4 | 0.00 | 0.00 | 0.00 | 87 | 1018.3 |
| 20260906075046 | 15 | 118 | 3.2 | 9.7 | 0.00 | 0.00 | 0.00 | 87 | 1018.2 |
| 20260906074610 | 15 | 104 | 4.8 | 9.7 | 0.00 | 0.00 | 0.00 | 87 | 1018.2 |
| 20260906074046 | 16 | 95 | 3.2 | 9.7 | 0.00 | 0.00 | 0.00 | 87 | 1018.2 |
| 20260906073544 | 16 | 109 | 4.8 | 9.7 | 0.00 | 0.00 | 0.00 | 86 | 1018.3 |
| 20260906073103 | 16 | 99 | 6.4 | 9.7 | 0.00 | 0.00 | 0.00 | 87 | 1018.2 |
| 20260906072547 | 16 | 100 | 4.8 | 6.4 | 0.00 | 0.00 | 0.00 | 87 | 1018.0 |
| 20260906072050 | 16 | 114 | 4.8 | 6.4 | 0.00 | 0.00 | 0.00 | 86 | 1018.1 |
| 20260906071609 | 16 | 87 | 3.2 | 6.4 | 0.00 | 0.00 | 0.00 | 86 | 1018.1 |
| 20260906071047 | 16 | 123 | 3.2 | 9.7 | 0.00 | 0.00 | 0.00 | 86 | 1018.3 |
| 20260906070548 | 16 | 122 | 3.2 | 9.7 | 0.00 | 0.00 | 0.00 | 86 | 1018.2 |
| 20260906070135 | 16 | 142 | 4.8 | 9.7 | 0.00 | 0.00 | 0.00 | 85 | 1018.3 |
| 20260906065548 | 16 | 98 | 3.2 | 6.4 | 0.00 | 0.00 | 0.00 | 85 | 1018.2 |
| 20260906065045 | 16 | 122 | 4.8 | 9.7 | 0.00 | 0.00 | 0.00 | 85 | 1018.3 |
| 20260906064557 | 16 | 90 | 4.8 | 11.3 | 0.00 | 0.00 | 0.00 | 84 | 1018.2 |
| 20260906064047 | 16 | 101 | 4.8 | 11.3 | 0.00 | 0.00 | 0.00 | 84 | 1018.2 |
| 20260906063546 | 16 | 98 | 6.4 | 9.7 | 0.00 | 0.00 | 0.00 | 84 | 1018.2 |
| 20260906063108 | 16 | 106 | 6.4 | 9.7 | 0.00 | 0.00 | 0.00 | 83 | 1018.2 |
| 20260906062547 | 16 | 100 | 4.8 | 9.7 | 0.00 | 0.00 | 0.00 | 83 | 1018.3 |
| 20260906062046 | 16 | 105 | 3.2 | 6.4 | 0.00 | 0.00 | 0.00 | 82 | 1018.3 |
| 20260906061635 | 17 | 106 | 3.2 | 6.4 | 0.00 | 0.00 | 0.00 | 82 | 1018.3 |
| 20260906061047 | 17 | 101 | 4.8 | 9.7 | 0.00 | 0.00 | 0.00 | 81 | 1018.3 |
| 20260906060548 | 17 | 91 | 4.8 | 9.7 | 0.00 | 0.00 | 0.00 | 81 | 1018.3 |
| 20260906060109 | 17 | 107 | 6.4 | 9.7 | 0.00 | 0.00 | 0.00 | 80 | 1018.3 |
| 20260906055546 | 17 | 83 | 6.4 | 9.7 | 0.00 | 0.00 | 0.00 | 80 | 1018.3 |
| 20260906055047 | 17 | 88 | 6.4 | 9.7 | 0.00 | 0.00 | 0.00 | 80 | 1018.3 |
| 20260906054601 | 17 | 89 | 6.4 | 9.7 | 0.00 | 0.00 | 0.00 | 79 | 1018.2 |
| 20260906054046 | 17 | 105 | 4.8 | 9.7 | 0.00 | 0.00 | 0.00 | 79 | 1018.3 |
| 20260906053545 | 17 | 103 | 4.8 | 9.7 | 0.00 | 0.00 | 0.00 | 79 | 1018.1 |
| 20260906053057 | 17 | 96 | 4.8 | 9.7 | 0.00 | 0.00 | 0.00 | 78 | 1018.3 |
| 20260906052546 | 17 | 71 | 4.8 | 9.7 | 0.00 | 0.00 | 0.00 | 78 | 1018.1 |
| 20260906052046 | 17 | 121 | 6.4 | 11.3 | 0.00 | 0.00 | 0.00 | 78 | 1018.0 |
| 20260906051553 | 17 | 98 | 6.4 | 11.3 | 0.00 | 0.00 | 0.00 | 77 | 1018.0 |
| 20260906051045 | 18 | 97 | 8.0 | 12.9 | 0.00 | 0.00 | 0.00 | 77 | 1018.0 |
| 20260906050545 | 18 | 105 | 8.0 | 12.9 | 0.00 | 0.00 | 0.00 | 76 | 1017.9 |
| 20260906050115 | 18 | 114 | 9.7 | 12.9 | 0.00 | 0.00 | 0.00 | 76 | 1017.9 |
| 20260906045544 | 18 | 84 | 8.0 | 11.3 | 0.00 | 0.00 | 0.00 | 76 | 1018.0 |
| 20260906045045 | 18 | 95 | 6.4 | 12.9 | 0.00 | 0.00 | 0.00 | 76 | 1017.9 |
| 20260906044557 | 18 | 108 | 8.0 | 14.5 | 0.00 | 0.00 | 0.00 | 76 | 1017.9 |
| 20260906044045 | 18 | 98 | 6.4 | 14.5 | 0.00 | 0.00 | 0.00 | 75 | 1017.9 |
| 20260906043545 | 18 | 81 | 11.3 | 14.5 | 0.00 | 0.00 | 0.00 | 75 | 1017.8 |
| 20260906043107 | 18 | 91 | 8.0 | 14.5 | 0.00 | 0.00 | 0.00 | 76 | 1017.8 |
| 20260906042545 | 18 | 117 | 6.4 | 17.7 | 0.00 | 0.00 | 0.00 | 75 | 1017.7 |
| 20260906042056 | 18 | 108 | 11.3 | 17.7 | 0.00 | 0.00 | 0.00 | 75 | 1017.6 |
| 20260906041555 | 18 | 115 | 8.0 | 17.7 | 0.00 | 0.00 | 0.00 | 76 | 1017.7 |
| 20260906041046 | 19 | 152 | 8.0 | 17.7 | 0.00 | 0.00 | 0.00 | 76 | 1017.6 |
| 20260906040545 | 18 | 107 | 8.0 | 16.1 | 0.00 | 0.00 | 0.00 | 76 | 1017.6 |
| 20260906040119 | 19 | 117 | 8.0 | 16.1 | 0.00 | 0.00 | 0.00 | 77 | 1017.7 |
| 20260906035545 | 19 | 81 | 6.4 | 14.5 | 0.00 | 0.00 | 0.00 | 77 | 1017.7 |
| 20260906035043 | 19 | 132 | 6.4 | 12.9 | 0.00 | 0.00 | 0.00 | 77 | 1017.7 |
| 20260906034557 | 19 | 128 | 6.4 | 11.3 | 0.00 | 0.00 | 0.00 | 78 | 1017.6 |
| 20260906034045 | 19 | 123 | 4.8 | 9.7 | 0.00 | 0.00 | 0.00 | 78 | 1017.5 |
| 20260906033545 | 19 | 104 | 4.8 | 11.3 | 0.00 | 0.00 | 0.00 | 78 | 1017.4 |
| 20260906033054 | 19 | 105 | 4.8 | 12.9 | 0.00 | 0.00 | 0.00 | 79 | 1017.3 |
| 20260906032548 | 19 | 110 | 4.8 | 12.9 | 0.00 | 0.00 | 0.00 | 79 | 1017.4 |
| 20260906032045 | 19 | 123 | 4.8 | 11.3 | 0.00 | 0.00 | 0.00 | 79 | 1017.4 |
| 20260906031608 | 19 | 97 | 6.4 | 11.3 | 0.00 | 0.00 | 0.00 | 79 | 1017.4 |
| 20260906031045 | 20 | 123 | 6.4 | 9.7 | 0.00 | 0.00 | 0.00 | 79 | 1017.4 |
| 20260906030542 | 20 | 103 | 4.8 | 9.7 | 0.00 | 0.00 | 0.00 | 78 | 1017.3 |
| 20260906030108 | 20 | 121 | 3.2 | 9.7 | 0.00 | 0.00 | 0.00 | 78 | 1017.3 |
| 20260906025542 | 20 | 98 | 4.8 | 11.3 | 0.00 | 0.00 | 0.00 | 78 | 1017.3 |
| 20260906025046 | 20 | 121 | 4.8 | 11.3 | 0.00 | 0.00 | 0.00 | 78 | 1017.2 |
| 20260906024559 | 20 | 99 | 4.8 | 8.0 | 0.00 | 0.00 | 0.00 | 78 | 1017.2 |
| 20260906024047 | 20 | 86 | 4.8 | 8.0 | 0.00 | 0.00 | 0.00 | 78 | 1017.3 |
| 20260906023548 | 20 | 95 | 3.2 | 11.3 | 0.00 | 0.00 | 0.00 | 78 | 1017.1 |
| 20260906023131 | 20 | 102 | 4.8 | 11.3 | 0.00 | 0.00 | 0.00 | 77 | 1016.9 |
| 20260906022547 | 20 | 94 | 3.2 | 8.0 | 0.00 | 0.00 | 0.00 | 78 | 1017.0 |
| 20260906022043 | 20 | 101 | 4.8 | 9.7 | 0.00 | 0.00 | 0.00 | 78 | 1016.8 |
| 20260906021605 | 20 | 91 | 4.8 | 9.7 | 0.00 | 0.00 | 0.00 | 78 | 1016.8 |
| 20260906021043 | 21 | 96 | 3.2 | 6.4 | 0.00 | 0.00 | 0.00 | 77 | 1016.7 |
| 20260906020543 | 21 | 98 | 3.2 | 9.7 | 0.00 | 0.00 | 0.00 | 76 | 1016.7 |
| 20260906020112 | 21 | 108 | 4.8 | 9.7 | 0.00 | 0.00 | 0.00 | 76 | 1016.7 |
| 20260906015545 | 21 | 103 | 4.8 | 9.7 | 0.00 | 0.00 | 0.00 | 76 | 1016.7 |
| 20260906015044 | 21 | 107 | 3.2 | 6.4 | 0.00 | 0.00 | 0.00 | 76 | 1016.7 |
| 20260906014626 | 21 | 107 | 4.8 | 11.3 | 0.00 | 0.00 | 0.00 | 75 | 1016.6 |
| 20260906014043 | 21 | 97 | 4.8 | 11.3 | 0.00 | 0.00 | 0.00 | 75 | 1016.6 |
| 20260906013547 | 22 | 96 | 4.8 | 12.9 | 0.00 | 0.00 | 0.00 | 75 | 1016.6 |
| 20260906013104 | 22 | 94 | 8.0 | 14.5 | 0.00 | 0.00 | 0.00 | 74 | 1016.5 |
| 20260906012543 | 22 | 74 | 8.0 | 14.5 | 0.00 | 0.00 | 0.00 | 74 | 1016.4 |
| 20260906012044 | 22 | 92 | 6.4 | 11.3 | 0.00 | 0.00 | 0.00 | 75 | 1016.5 |
| 20260906011606 | 22 | 97 | 6.4 | 9.7 | 0.00 | 0.00 | 0.00 | 75 | 1016.4 |
| 20260906011044 | 22 | 90 | 3.2 | 9.7 | 0.00 | 0.00 | 0.00 | 75 | 1016.4 |
| 20260906010544 | 22 | 86 | 4.8 | 8.0 | 0.00 | 0.00 | 0.00 | 75 | 1016.3 |
| 20260906010055 | 22 | 97 | 4.8 | 12.9 | 0.00 | 0.00 | 0.00 | 76 | 1016.3 |
| 20260906005544 | 22 | 92 | 4.8 | 12.9 | 0.00 | 0.00 | 0.00 | 75 | 1016.2 |
| 20260906005043 | 22 | 88 | 6.4 | 12.9 | 0.00 | 0.00 | 0.00 | 76 | 1016.1 |
| 20260906004612 | 22 | 91 | 6.4 | 12.9 | 0.00 | 0.00 | 0.00 | 76 | 1016.0 |
| 20260906004043 | 22 | 80 | 8.0 | 12.9 | 0.00 | 0.00 | 0.00 | 76 | 1016.0 |
| 20260906003547 | 22 | 79 | 8.0 | 12.9 | 0.00 | 0.00 | 0.00 | 78 | 1015.8 |
| 20260906003057 | 22 | 78 | 6.4 | 9.7 | 0.00 | 0.00 | 0.00 | 79 | 1015.8 |
| 20260906002543 | 22 | 61 | 4.8 | 8.0 | 0.00 | 0.00 | 0.00 | 79 | 1015.9 |
| 20260906002045 | 22 | 61 | 4.8 | 8.0 | 0.00 | 0.00 | 0.00 | 78 | 1015.9 |
| 20260906001554 | 22 | 47 | 4.8 | 6.4 | 0.00 | 0.00 | 0.00 | 78 | 1016.0 |
| 20260906001045 | 23 | 45 | 4.8 | 6.4 | 0.00 | 0.00 | 0.00 | 77 | 1015.9 |
| 20260906000544 | 23 | 69 | 3.2 | 6.4 | 0.00 | 0.00 | 0.00 | 77 | 1015.9 |
| 20260906000111 | 23 | 35 | 3.2 | 9.7 | 0.00 | 0.00 | 0.00 | 76 | 1015.9 |
| 20260905235544 | 23 | 80 | 4.8 | 11.3 | 0.00 | 0.00 | 0.00 | 75 | 1016.0 |
| 20260905235043 | 23 | 79 | 6.4 | 11.3 | 0.00 | 0.00 | 0.00 | 74 | 1016.0 |
| 20260905234602 | 23 | 69 | 4.8 | 11.3 | 0.00 | 0.00 | 0.00 | 74 | 1015.9 |
| 20260905234044 | 23 | 83 | 6.4 | 11.3 | 0.00 | 0.00 | 0.00 | 74 | 1015.9 |
| 20260905233544 | 23 | 78 | 6.4 | 11.3 | 0.00 | 0.00 | 0.00 | 74 | 1015.9 |
| 20260905233109 | 23 | 57 | 6.4 | 11.3 | 0.00 | 0.00 | 0.00 | 74 | 1015.9 |
| 20260905232545 | 23 | 63 | 6.4 | 11.3 | 0.00 | 0.00 | 0.00 | 73 | 1015.8 |
| 20260905232046 | 24 | 67 | 6.4 | 11.3 | 0.00 | 0.00 | 0.00 | 75 | 1015.7 |
| 20260905231556 | 24 | 69 | 6.4 | 11.3 | 0.00 | 0.00 | 0.00 | 74 | 1015.7 |
| 20260905231042 | 24 | 74 | 3.2 | 6.4 | 0.00 | 0.00 | 0.00 | 74 | 1015.7 |
| 20260905230543 | 25 | 96 | 3.2 | 6.4 | 0.00 | 0.00 | 0.00 | 75 | 1015.7 |
| 20260905230109 | 25 | 50 | 3.2 | 6.4 | 0.00 | 0.00 | 0.00 | 73 | 1015.7 |
| 20260905225543 | 25 | 30 | 3.2 | 6.4 | 0.00 | 0.00 | 0.00 | 73 | 1015.7 |
| 20260905225043 | 24 | 50 | 3.2 | 6.4 | 0.00 | 0.00 | 0.00 | 73 | 1015.6 |
| 20260905224609 | 24 | 79 | 4.8 | 9.7 | 0.00 | 0.00 | 0.00 | 73 | 1015.7 |
| 20260905224042 | 24 | 82 | 4.8 | 11.3 | 0.00 | 0.00 | 0.00 | 73 | 1015.7 |
| 20260905223545 | 25 | 78 | 6.4 | 16.1 | 0.00 | 0.00 | 0.00 | 72 | 1015.7 |
| 20260905223057 | 25 | 65 | 6.4 | 16.1 | 0.00 | 0.00 | 0.00 | 73 | 1015.6 |
| 20260905222546 | 25 | 69 | 11.3 | 16.1 | 0.00 | 0.00 | 0.00 | 71 | 1015.6 |
| 20260905222044 | 25 | 80 | 6.4 | 12.9 | 0.00 | 0.00 | 0.00 | 74 | 1015.5 |
| 20260905221603 | 25 | 74 | 6.4 | 12.9 | 0.00 | 0.00 | 0.00 | 72 | 1015.6 |
| 20260905221042 | 25 | 109 | 6.4 | 12.9 | 0.00 | 0.00 | 0.00 | 73 | 1015.4 |
| 20260905220545 | 25 | 115 | 6.4 | 14.5 | 0.00 | 0.00 | 0.00 | 72 | 1015.4 |
| 20260905220116 | 25 | 77 | 4.8 | 14.5 | 0.00 | 0.00 | 0.00 | 74 | 1015.3 |
| 20260905215542 | 25 | 97 | 6.4 | 12.9 | 0.00 | 0.00 | 0.00 | 73 | 1015.2 |
| 20260905215042 | 25 | 103 | 8.0 | 11.3 | 0.00 | 0.00 | 0.00 | 73 | 1015.1 |
| 20260905214602 | 25 | 128 | 3.2 | 14.5 | 0.00 | 0.00 | 0.00 | 74 | 1015.0 |
| 20260905214043 | 25 | 103 | 8.0 | 14.5 | 0.00 | 0.00 | 0.00 | 73 | 1015.1 |
| 20260905213546 | 24 | 91 | 8.0 | 16.1 | 0.00 | 0.00 | 0.00 | 75 | 1015.3 |
| 20260905213108 | 24 | 82 | 12.9 | 17.7 | 0.00 | 0.00 | 0.00 | 75 | 1015.2 |
| 20260905212545 | 24 | 95 | 11.3 | 17.7 | 0.00 | 0.00 | 0.00 | 74 | 1015.3 |
| 20260905212045 | 24 | 98 | 11.3 | 17.7 | 0.00 | 0.00 | 0.00 | 75 | 1015.3 |
| 20260905211609 | 24 | 101 | 8.0 | 14.5 | 0.00 | 0.00 | 0.00 | 75 | 1015.4 |
| 20260905211042 | 24 | 113 | 8.0 | 14.5 | 0.00 | 0.00 | 0.00 | 76 | 1015.3 |
| 20260905210544 | 24 | 122 | 6.4 | 14.5 | 0.00 | 0.00 | 0.00 | 76 | 1015.3 |
| 20260905210058 | 24 | 80 | 9.7 | 12.9 | 0.00 | 0.00 | 0.00 | 76 | 1015.2 |
| 20260905205545 | 24 | 132 | 4.8 | 16.1 | 0.00 | 0.00 | 0.00 | 77 | 1015.3 |
| 20260905205045 | 24 | 87 | 9.7 | 16.1 | 0.00 | 0.00 | 0.00 | 78 | 1015.3 |
| 20260905204605 | 23 | 71 | 11.3 | 16.1 | 0.00 | 0.00 | 0.00 | 78 | 1015.3 |
| 20260905204046 | 23 | 101 | 8.0 | 14.5 | 0.00 | 0.00 | 0.00 | 79 | 1015.4 |
| 20260905203542 | 23 | 69 | 4.8 | 14.5 | 0.00 | 0.00 | 0.00 | 79 | 1015.5 |
| 20260905203102 | 23 | 61 | 6.4 | 14.5 | 0.00 | 0.00 | 0.00 | 81 | 1015.5 |
| 20260905202545 | 23 | 101 | 6.4 | 16.1 | 0.00 | 0.00 | 0.00 | 80 | 1015.5 |
| 20260905202047 | 23 | 49 | 6.4 | 17.7 | 0.00 | 0.00 | 0.00 | 81 | 1015.5 |
| 20260905201555 | 23 | 94 | 8.0 | 17.7 | 0.00 | 0.00 | 0.00 | 81 | 1015.5 |
| 20260905201043 | 23 | 69 | 11.3 | 17.7 | 0.00 | 0.00 | 0.00 | 81 | 1015.5 |
| 20260905200543 | 23 | 63 | 12.9 | 17.7 | 0.00 | 0.00 | 0.00 | 81 | 1015.6 |
| 20260905200109 | 23 | 97 | 11.3 | 16.1 | 0.00 | 0.00 | 0.00 | 80 | 1015.6 |
| 20260905195543 | 23 | 84 | 8.0 | 16.1 | 0.00 | 0.00 | 0.00 | 81 | 1015.6 |
| 20260905195043 | 22 | 80 | 8.0 | 16.1 | 0.00 | 0.00 | 0.00 | 82 | 1015.6 |
| 20260905194604 | 22 | 94 | 8.0 | 14.5 | 0.00 | 0.00 | 0.00 | 82 | 1015.6 |
| 20260905194044 | 22 | 59 | 8.0 | 17.7 | 0.00 | 0.00 | 0.00 | 84 | 1015.6 |
| 20260905193543 | 22 | 60 | 6.4 | 17.7 | 0.00 | 0.00 | 0.00 | 84 | 1015.8 |
| 20260905193056 | 22 | 61 | 12.9 | 17.7 | 0.00 | 0.00 | 0.00 | 85 | 1015.9 |
| 20260905192544 | 22 | 68 | 11.3 | 17.7 | 0.00 | 0.00 | 0.00 | 85 | 1016.0 |
| 20260905192043 | 22 | 88 | 12.9 | 17.7 | 0.00 | 0.00 | 0.00 | 86 | 1016.0 |
| 20260905191605 | 22 | 87 | 9.7 | 14.5 | 0.00 | 0.00 | 0.00 | 85 | 1015.8 |
| 20260905191043 | 22 | 75 | 9.7 | 14.5 | 0.00 | 0.00 | 0.00 | 87 | 1015.9 |
| 20260905190544 | 22 | 52 | 9.7 | 12.9 | 0.00 | 0.00 | 0.00 | 90 | 1016.0 |
| 20260905190108 | 21 | 55 | 8.0 | 14.5 | 0.00 | 0.00 | 0.00 | 91 | 1016.1 |
| 20260905185544 | 21 | 59 | 4.8 | 19.3 | 0.00 | 0.00 | 0.00 | 91 | 1016.0 |
| 20260905185044 | 21 | 74 | 11.3 | 19.3 | 0.00 | 0.00 | 0.00 | 92 | 1016.0 |
| 20260905184605 | 21 | 71 | 8.0 | 14.5 | 0.00 | 0.00 | 0.00 | 91 | 1016.0 |
| 20260905184044 | 21 | 34 | 8.0 | 14.5 | 0.00 | 0.00 | 0.00 | 91 | 1016.1 |
| 20260905183545 | 21 | 52 | 9.7 | 14.5 | 0.00 | 0.00 | 0.00 | 91 | 1016.2 |
| 20260905183114 | 21 | 57 | 6.4 | 12.9 | 0.00 | 0.00 | 0.00 | 91 | 1016.2 |
| 20260905182543 | 21 | 49 | 6.4 | 12.9 | 0.00 | 0.00 | 0.00 | 91 | 1016.3 |
| 20260905182044 | 21 | 52 | 6.4 | 12.9 | 0.00 | 0.00 | 0.00 | 90 | 1016.2 |
| 20260905181558 | 21 | 57 | 4.8 | 12.9 | 0.00 | 0.00 | 0.00 | 89 | 1016.2 |
| 20260905181047 | 21 | 55 | 6.4 | 12.9 | 0.00 | 0.00 | 0.00 | 88 | 1016.2 |
| 20260905180547 | 21 | 54 | 8.0 | 12.9 | 0.00 | 0.00 | 0.00 | 87 | 1016.1 |
| 20260905175544 | 21 | 66 | 4.8 | 19.3 | 0.00 | 0.03 | 0.00 | 88 | 1016.2 |
| 20260905175045 | 21 | 84 | 11.3 | 17.7 | 0.00 | 0.03 | 0.00 | 87 | 1016.2 |
| 20260905174559 | 21 | 66 | 6.4 | 14.5 | 0.00 | 0.03 | 0.00 | 87 | 1016.1 |
| 20260905174044 | 21 | 82 | 4.8 | 14.5 | 0.00 | 0.03 | 0.00 | 88 | 1016.0 |
| 20260905173544 | 21 | 84 | 8.0 | 17.7 | 0.00 | 0.03 | 0.00 | 88 | 1015.9 |
| 20260905173104 | 21 | 51 | 11.3 | 20.9 | 0.00 | 0.03 | 0.00 | 87 | 1015.9 |
| 20260905172551 | 20 | 78 | 14.5 | 20.9 | 0.00 | 0.03 | 0.00 | 87 | 1015.8 |
| 20260905172048 | 20 | 82 | 14.5 | 20.9 | 0.00 | 0.03 | 0.00 | 87 | 1015.8 |
| 20260905171605 | 20 | 116 | 14.5 | 20.9 | 0.00 | 0.03 | 0.00 | 87 | 1015.9 |
| 20260905171047 | 20 | 96 | 14.5 | 20.9 | 0.00 | 0.03 | 0.00 | 87 | 1016.0 |
| 20260905170547 | 20 | 93 | 12.9 | 20.9 | 0.00 | 0.03 | 0.00 | 87 | 1016.0 |
| 20260905170101 | 21 | 90 | 11.3 | 19.3 | 0.00 | 0.03 | 0.00 | 88 | 1016.1 |
| 20260905165548 | 20 | 91 | 8.0 | 19.3 | 0.00 | 0.05 | 0.00 | 89 | 1016.1 |
| 20260905165049 | 20 | 73 | 12.9 | 19.3 | 0.00 | 0.05 | 0.00 | 89 | 1016.0 |
| 20260905164603 | 20 | 88 | 12.9 | 19.3 | 0.00 | 0.05 | 0.00 | 89 | 1016.0 |
| 20260905164047 | 20 | 92 | 14.5 | 19.3 | 0.00 | 0.05 | 0.00 | 88 | 1015.9 |
| 20260905163545 | 20 | 74 | 12.9 | 19.3 | 0.00 | 0.05 | 0.00 | 88 | 1015.8 |
| 20260905163055 | 20 | 75 | 12.9 | 19.3 | 0.00 | 0.05 | 0.00 | 88 | 1015.9 |
| 20260905162546 | 20 | 84 | 12.9 | 19.3 | 0.00 | 0.05 | 0.00 | 88 | 1015.9 |
| 20260905162046 | 20 | 45 | 14.5 | 19.3 | 0.00 | 0.05 | 0.00 | 88 | 1015.9 |
| 20260905161604 | 20 | 78 | 12.9 | 17.7 | 0.00 | 0.05 | 0.00 | 88 | 1015.9 |
| 20260905161045 | 20 | 76 | 12.9 | 17.7 | 0.00 | 0.05 | 0.00 | 88 | 1016.0 |
| 20260905160545 | 20 | 77 | 11.3 | 14.5 | 0.00 | 0.05 | 0.00 | 88 | 1016.0 |
| 20260905160123 | 20 | 63 | 9.7 | 12.9 | 0.00 | 0.05 | 0.00 | 89 | 1016.0 |
| 20260905155547 | 20 | 84 | 6.4 | 12.9 | 0.00 | 0.18 | 0.00 | 89 | 1016.0 |
| 20260905155045 | 20 | 67 | 8.0 | 16.1 | 0.00 | 0.18 | 0.00 | 89 | 1015.9 |
| 20260905154607 | 20 | 77 | 8.0 | 16.1 | 0.00 | 0.18 | 0.00 | 89 | 1015.8 |
| 20260905154046 | 20 | 92 | 11.3 | 16.1 | 0.00 | 0.18 | 0.00 | 89 | 1015.8 |
| 20260905153545 | 20 | 75 | 8.0 | 12.9 | 0.00 | 0.18 | 0.00 | 89 | 1015.8 |
| 20260905153112 | 20 | 79 | 8.0 | 12.9 | 0.00 | 0.18 | 0.00 | 88 | 1015.7 |
| 20260905152547 | 20 | 81 | 8.0 | 12.9 | 0.00 | 0.18 | 0.00 | 89 | 1015.7 |
| 20260905152046 | 20 | 59 | 6.4 | 12.9 | 0.00 | 0.18 | 0.00 | 88 | 1015.7 |
| 20260905151609 | 20 | 85 | 6.4 | 12.9 | 0.00 | 0.18 | 0.00 | 87 | 1015.7 |
| 20260905151046 | 20 | 94 | 9.7 | 12.9 | 0.00 | 0.18 | 0.00 | 86 | 1015.7 |
| 20260905150545 | 20 | 98 | 6.4 | 12.9 | 0.00 | 0.18 | 0.00 | 86 | 1015.6 |
| 20260905150120 | 20 | 128 | 9.7 | 14.5 | 0.00 | 0.18 | 0.00 | 85 | 1015.7 |
| 20260905145546 | 20 | 128 | 3.2 | 14.5 | 0.00 | 0.23 | 0.00 | 86 | 1015.8 |
| 20260905145048 | 20 | 82 | 9.7 | 14.5 | 0.00 | 0.23 | 0.00 | 85 | 1015.7 |
| 20260905144604 | 21 | 123 | 4.8 | 11.3 | 0.00 | 0.23 | 0.00 | 85 | 1015.5 |
| 20260905144045 | 21 | 129 | 4.8 | 11.3 | 0.00 | 0.23 | 0.00 | 85 | 1015.4 |
| 20260905143546 | 21 | 87 | 4.8 | 9.7 | 0.00 | 0.23 | 0.00 | 85 | 1015.3 |
| 20260905143104 | 21 | 94 | 4.8 | 12.9 | 0.00 | 0.23 | 0.00 | 86 | 1015.4 |
| 20260905142546 | 20 | 76 | 4.8 | 19.3 | 0.00 | 0.23 | 0.00 | 86 | 1015.3 |
| 20260905142046 | 20 | 99 | 8.0 | 19.3 | 0.00 | 0.23 | 0.00 | 85 | 1015.2 |
| 20260905141620 | 20 | 128 | 8.0 | 19.3 | 0.00 | 0.23 | 0.00 | 85 | 1015.3 |
| 20260905141045 | 20 | 100 | 8.0 | 17.7 | 0.00 | 0.23 | 0.00 | 85 | 1015.4 |
| 20260905140545 | 20 | 89 | 11.3 | 17.7 | 0.00 | 0.23 | 0.00 | 85 | 1015.1 |
| 20260905140124 | 21 | 100 | 6.4 | 16.1 | 0.00 | 0.23 | 0.00 | 86 | 1015.1 |
| 20260905135544 | 20 | 69 | 9.7 | 17.7 | 0.00 | 0.66 | 0.00 | 86 | 1014.9 |
| 20260905135048 | 20 | 90 | 11.3 | 17.7 | 0.00 | 0.66 | 0.00 | 86 | 1014.9 |
| 20260905134607 | 20 | 88 | 11.3 | 17.7 | 0.00 | 0.66 | 0.00 | 86 | 1014.9 |
| 20260905134044 | 20 | 99 | 11.3 | 19.3 | 0.00 | 0.66 | 0.00 | 87 | 1014.8 |
| 20260905133544 | 20 | 99 | 11.3 | 19.3 | 0.00 | 0.66 | 0.00 | 87 | 1014.9 |
| 20260905133105 | 20 | 92 | 11.3 | 22.5 | 0.00 | 0.66 | 0.00 | 87 | 1014.9 |
| 20260905132544 | 20 | 85 | 14.5 | 22.5 | 0.00 | 0.66 | 0.00 | 87 | 1015.0 |
| 20260905132044 | 20 | 117 | 12.9 | 22.5 | 0.00 | 0.66 | 0.00 | 88 | 1015.0 |
| 20260905131610 | 20 | 90 | 12.9 | 20.9 | 0.00 | 0.66 | 0.00 | 88 | 1015.0 |
| 20260905131047 | 20 | 89 | 12.9 | 20.9 | 0.00 | 0.66 | 0.00 | 88 | 1014.9 |
| 20260905130548 | 20 | 74 | 14.5 | 20.9 | 0.00 | 0.66 | 0.00 | 89 | 1014.8 |
| 20260905130112 | 20 | 100 | 11.3 | 20.9 | 0.00 | 0.66 | 0.00 | 89 | 1014.7 |
| 20260905125547 | 20 | 73 | 14.5 | 20.9 | 0.00 | 1.73 | 0.00 | 89 | 1014.8 |
| 20260905125045 | 20 | 80 | 16.1 | 20.9 | 0.00 | 1.73 | 0.00 | 90 | 1014.8 |